Погода в Солнечном

Россия / Республика Саха (Якутия)     60°18′06″N   137°33′20″E
темп.,
°C
ветер,
м/с
пор.,
м/с
влажн.,
%
обл.,
%
осадки,
мм/ч
давл.,
гПа
погр.,
м
27 февраля, сб
сб2700:00−36с009712 0.0 103319
03:00−36св119714 0.0 103219
06:00−36с11966 0.0 103119
09:00−31св00953 0.0 103035
12:00−23ю118610 0.0 1027261
15:00−22ююв11877 0.0 1024264
18:00−28в11940 0.0 102319
21:00−30вюв11904 0.0 102219
28 февраля, вс
вс2800:00−29вюв118565 0.0 102019
03:00−27вюв128482 0.0 101720
06:00−27юв2284100 0.0 101820
09:00−25вюв1187100 0.0 101779
12:00−20ююв1284100 0.0 1018369
15:00−19юз1189100 0.0 1017406
18:00−22з2299100 0.2 102027
21:00−25з2299100 0.3 102139
1 марта, пн
пн100:00−27з2298100 0.1 102240
03:00−28зсз1198100 0.1 102350
06:00−28зсз1298100 0.1 102340
09:00−28з2295100 0.1 1024356
12:00−27з2388100 0.0 1023697
15:00−28з2487100 0.1 1022768
18:00−30зсз2297100 0.0 102443
21:00−32зсз1297100 0.1 102423
2 марта, вт
вт200:00−32сз1198100 0.0 102443
03:00−32сз1198100 0.1 102336
06:00−32зсз1199100 0.1 102348
09:00−31зсз1294100 0.4 1023312
12:00−29з1286100 0.1 1023639
15:00−29з2289100 0.3 1023653
18:00−31з1198100 0.1 102421
21:00−31з1198100 0.2 102520
3 марта, ср
ср300:00−32зсз1199100 0.1 102419
03:00−32зсз1199100 0.2 102319
06:00−32зсз1198100 0.1 102219
09:00−31з1194100 0.1 1021223
12:00−28з1288100 0.1 1018480
15:00−28з2289100 0.1 1016583
18:00−32з1197100 0.0 101619
21:00−35зсз1199100 0.0 101519